This is the latest recevied weather packets stored in our database for station/object W9WRP. If no packets are shown the sender has not sent any weather packets the latest 10 day(s).
| Time | Temp. | Humidity | Pressure | Rain* | Wind** | Luminosity | Snow |
|---|---|---|---|---|---|---|---|
| 1787948070 | 40.56° C | 23% | 1014.9 hPa | 0 mm | - | 354 W/m² | - |
| 1787947769 | 40.56° C | 23% | 1015 hPa | 0 mm | - | 321 W/m² | - |
| 1787947463 | 40.56° C | 23% | 1015 hPa | 0 mm | - | 367 W/m² | - |
| 1787947158 | 41.67° C | 22% | 1015.1 hPa | 0 mm | - | 386 W/m² | - |
| 1787946857 | 41.67° C | 22% | 1015.4 hPa | 0 mm | - | 415 W/m² | - |
| 1787946555 | 41.67° C | 22% | 1015.5 hPa | 0 mm | - | 432 W/m² | - |
| 1787946251 | 41.11° C | 23% | 1015.5 hPa | 0 mm | - | 631 W/m² | - |
| 1787945950 | 41.67° C | 22% | 1015.5 hPa | 0 mm | - | 489 W/m² | - |
| 1787945645 | 41.67° C | 22% | 1015.7 hPa | 0 mm | - | 652 W/m² | - |
| 1787945345 | 42.22° C | 21% | 1015.7 hPa | 0 mm | - | 647 W/m² | - |
| 1787945041 | 42.78° C | 22% | 1015.8 hPa | 0 mm | - | 712 W/m² | - |
| 1787944738 | 41.67° C | 22% | 1015.8 hPa | 0 mm | - | 754 W/m² | - |
| 1787944434 | 40.56° C | 23% | 1016 hPa | 0 mm | - | 759 W/m² | - |
| 1787944129 | 40° C | 24% | 1016.1 hPa | 0 mm | - | 699 W/m² | - |
| 1787943824 | 40° C | 24% | 1016.2 hPa | 0 mm | - | 711 W/m² | - |
| 1787943519 | 39.44° C | 24% | 1016.4 hPa | 0 mm | - | 684 W/m² | - |
| 1787943214 | 40° C | 23% | 1016.5 hPa | 0 mm | - | 701 W/m² | - |
| 1787942913 | 40.56° C | 23% | 1016.3 hPa | 0 mm | - | 691 W/m² | - |
| 1787942610 | 40° C | 24% | 1016.5 hPa | 0 mm | - | 560 W/m² | - |
| 1787942309 | 40° C | 23% | 1016.3 hPa | 0 mm | - | 586 W/m² | - |
| 1787942004 | 40° C | 24% | 1016.4 hPa | 0 mm | - | 592 W/m² | - |
| 1787941699 | 40° C | 24% | 1016.5 hPa | 0 mm | - | 453 W/m² | - |
| 1787941397 | 40.56° C | 23% | 1016.2 hPa | 0 mm | - | 539 W/m² | - |
| 1787941097 | 40.56° C | 22% | 1016.3 hPa | 0 mm | - | 632 W/m² | - |
| 1787940793 | 39.44° C | 24% | 1016.5 hPa | 0 mm | - | 515 W/m² | - |
* Rain latest hour (hover to see other rain measurements)
** Current wind speed in m/s (hover to see current wind gust speed)